Total_Precipitation_Accumulation
0.00 0.00 0.00 0.00 0.00 0.00 0.00 0.00 0.01 0.03 0.04 0.08 0.13 0.22 0.29 0.29 0.23 0.17 0.19 0.19 0.24 0.34 0.40 0.43 0.36 0.37 0.33 0.35 0.26 0.26 0.30 0.39 0.64 0.62 0.52 0.58 0.61 0.66 0.73 0.69 0.62 0.33 0.43
0.00 0.00 0.00 0.00 0.00 0.00 0.00 0.00 0.01 0.04 0.06 0.10 0.15 0.18 0.24 0.29 0.31 0.20 0.12 0.09 0.11 0.15 0.28 0.36 0.30 0.29 0.34 0.40 0.40 0.38 0.43 0.42 0.55 0.76 0.76 0.72 0.68 0.61 0.61 0.69 0.75 0.57 0.39
0.00 0.00 0.00 0.00 0.01 0.00 0.00 0.00 0.00 0.02 0.04 0.04 0.05 0.09 0.20 0.24 0.24 0.15 0.10 0.06 0.04 0.05 0.07 0.16 0.17 0.19 0.26 0.37 0.47 0.40 0.51 0.49 0.51 0.54 0.69 0.73 0.81 0.76 0.67 0.66 0.71 0.70 0.56
0.00 0.00 0.01 0.01 0.01 0.00 0.00 0.00 0.00 0.00 0.01 0.01 0.02 0.04 0.11 0.19 0.19 0.11 0.07 0.06 0.04 0.03 0.02 0.03 0.03 0.11 0.20 0.18 0.34 0.38 0.45 0.49 0.58 0.53 0.57 0.65 0.74 0.81 0.75 0.73 0.72 0.70 0.73
0.00 0.00 0.01 0.01 0.00 0.00 0.00 0.00 0.00 0.00 0.00 0.01 0.01 0.02 0.04 0.08 0.13 0.14 0.13 0.07 0.03 0.04 0.02 0.01 0.01 0.03 0.05 0.06 0.19 0.20 0.27 0.38 0.44 0.53 0.60 0.63 0.69 0.73 0.76 0.68 0.67 0.62 0.55
0.00 0.00 0.00 0.00 0.00 0.00 0.00 0.00 0.00 0.00 0.00 0.01 0.02 0.03 0.03 0.04 0.04 0.03 0.00 0.01 0.01 0.04 0.01 0.01 0.01 0.01 0.02 0.01 0.08 0.11 0.19 0.27 0.32 0.31 0.38 0.43 0.50 0.61 0.66 0.66 0.63 0.55 0.53
0.00 0.00 0.00 0.00 0.00 0.00 0.00 0.00 0.00 0.00 0.00 0.01 0.01 0.01 0.01 0.03 0.03 0.03 0.00 0.00 0.00 0.01 0.01 0.01 0.02 0.01 0.03 0.00 0.03 0.06 0.08 0.13 0.22 0.25 0.28 0.29 0.28 0.25 0.26 0.28 0.33 0.36 0.42
0.00 0.00 0.00 0.00 0.00 0.00 0.00 0.00 0.00 0.00 0.00 0.00 0.00 0.00 0.00 0.02 0.03 0.03 0.00 0.00 0.00 0.00 0.01 0.01 0.03 0.02 0.04 0.00 0.01 0.03 0.05 0.05 0.10 0.10 0.15 0.19 0.21 0.18 0.15 0.15 0.16 0.16 0.12
0.00 0.00 0.00 0.00 0.00 0.00 0.00 0.00 0.00 0.00 0.00 0.00 0.00 0.00 0.00 0.01 0.04 0.04 0.01 0.00 0.00 0.01 0.01 0.01 0.04 0.03 0.05 0.02 0.00 0.01 0.02 0.03 0.01 0.02 0.02 0.03 0.04 0.05 0.06 0.06 0.04 0.06 0.07
0.00 0.00 0.00 0.00 0.00 0.00 0.00 0.00 0.00 0.00 0.00 0.00 0.00 0.00 0.00 0.00 0.03 0.05 0.04 0.01 0.00 0.01 0.01 0.00 0.03 0.05 0.05 0.03 0.01 0.01 0.01 0.02 0.01 0.00 0.00 0.00 0.00 0.00 0.00 0.01 0.02 0.04 0.03
0.00 0.00 0.00 0.00 0.00 0.00 0.00 0.00 0.00 0.00 0.00 0.00 0.00 0.00 0.00 0.01 0.02 0.03 0.05 0.03 0.02 0.01 0.02 0.02 0.04 0.06 0.05 0.04 0.02 0.03 0.04 0.01 0.00 0.00 0.00 0.00 0.00 0.00 0.00 0.00 0.00 0.01 0.02
0.00 0.00 0.00 0.00 0.00 0.00 0.00 0.00 0.00 0.00 0.00 0.00 0.00 0.00 0.00 0.00 0.01 0.01 0.03 0.04 0.02 0.02 0.06 0.06 0.05 0.05 0.04 0.04 0.03 0.02 0.01 0.00 0.00 0.00 0.00 0.01 0.00 0.00 0.00 0.00 0.00 0.00 0.00
0.00 0.00 0.00 0.00 0.00 0.00 0.00 0.00 0.00 0.00 0.00 0.00 0.00 0.00 0.00 0.00 0.01 0.01 0.01 0.02 0.02 0.03 0.07 0.06 0.04 0.02 0.02 0.01 0.03 0.01 0.01 0.01 0.02 0.02 0.03 0.03 0.01 0.00 0.00 0.00 0.00 0.00 0.00
0.00 0.00 0.00 0.00 0.00 0.00 0.00 0.00 0.00 0.00 0.00 0.00 0.01 0.01 0.01 0.00 0.03 0.03 0.02 0.02 0.01 0.02 0.05 0.05 0.04 0.02 0.02 0.01 0.01 0.01 0.01 0.02 0.02 0.05 0.05 0.02 0.00 0.00 0.00 0.00 0.00 0.00 0.00
0.00 0.00 0.00 0.00 0.00 0.00 0.00 0.00 0.00 0.00 0.00 0.00 0.01 0.01 0.02 0.05 0.07 0.06 0.05 0.09 0.07 0.08 0.07 0.04 0.02 0.02 0.01 0.01 0.01 0.01 0.01 0.01 0.02 0.03 0.03 0.02 0.01 0.01 0.01 0.00 0.00 0.00 0.00
0.00 0.00 0.00 0.00 0.00 0.00 0.00 0.00 0.00 0.00 0.00 0.00 0.00 0.00 0.00 0.02 0.01 0.01 0.02 0.04 0.02 0.03 0.02 0.02 0.03 0.03 0.04 0.04 0.04 0.03 0.02 0.03 0.05 0.03 0.03 0.03 0.03 0.02 0.02 0.01 0.00 0.01 0.01
0.00 0.00 0.00 0.00 0.00 0.00 0.00 0.00 0.00 0.00 0.00 0.00 0.00 0.00 0.00 0.00 0.00 0.01 0.00 0.02 0.01 0.00 0.02 0.02 0.04 0.06 0.07 0.05 0.06 0.06 0.08 0.09 0.07 0.04 0.04 0.04 0.03 0.02 0.03 0.02 0.02 0.01 0.01
0.00 0.00 0.00 0.00 0.00 0.00 0.00 0.00 0.00 0.00 0.00 0.00 0.00 0.00 0.00 0.00 0.00 0.00 0.00 0.00 0.00 0.01 0.02 0.05 0.07 0.07 0.07 0.07 0.07 0.08 0.06 0.05 0.05 0.04 0.05 0.04 0.05 0.04 0.05 0.04 0.04 0.04 0.02
0.00 0.00 0.00 0.00 0.00 0.00 0.00 0.00 0.00 0.00 0.00 0.00 0.00 0.00 0.00 0.00 0.00 0.00 0.00 0.00 0.02 0.03 0.04 0.05 0.07 0.08 0.10 0.10 0.10 0.10 0.10 0.10 0.09 0.07 0.05 0.06 0.06 0.06 0.06 0.05 0.03 0.02 0.03
0.00 0.00 0.00 0.00 0.00 0.00 0.00 0.00 0.00 0.00 0.00 0.00 0.00 0.00 0.00 0.00 0.00 0.00 0.00 0.01 0.01 0.03 0.05 0.07 0.08 0.08 0.10 0.12 0.11 0.12 0.08 0.06 0.06 0.06 0.06 0.06 0.06 0.07 0.10 0.07 0.06 0.06 0.05
0.00 0.00 0.00 0.00 0.00 0.00 0.00 0.00 0.00 0.00 0.00 0.00 0.00 0.00 0.00 0.00 0.00 0.00 0.00 0.01 0.02 0.04 0.05 0.07 0.07 0.06 0.08 0.10 0.11 0.11 0.10 0.09 0.09 0.08 0.06 0.07 0.07 0.08 0.08 0.09 0.07 0.06 0.06
0.00 0.00 0.00 0.00 0.00 0.00 0.00 0.00 0.00 0.00 0.00 0.00 0.00 0.00 0.00 0.00 0.00 0.00 0.00 0.01 0.01 0.04 0.04 0.08 0.09 0.09 0.11 0.13 0.12 0.11 0.09 0.09 0.08 0.07 0.07 0.07 0.07 0.09 0.08 0.07 0.04 0.04 0.05
0.00 0.00 0.00 0.00 0.00 0.00 0.00 0.00 0.00 0.00 0.00 0.00 0.00 0.00 0.00 0.00 0.00 0.00 0.00 0.00 0.00 0.03 0.03 0.04 0.06 0.06 0.09 0.11 0.09 0.11 0.11 0.12 0.14 0.13 0.12 0.07 0.07 0.08 0.07 0.07 0.05 0.06 0.05
0.00 0.00 0.00 0.00 0.00 0.00 0.00 0.00 0.00 0.00 0.00 0.00 0.00 0.00 0.00 0.00 0.00 0.00 0.00 0.00 0.00 0.02 0.02 0.03 0.05 0.07 0.12 0.08 0.08 0.09 0.12 0.14 0.11 0.11 0.13 0.10 0.08 0.05 0.05 0.05 0.05 0.06 0.07
0.00 0.00 0.00 0.00 0.00 0.00 0.00 0.00 0.00 0.00 0.00 0.00 0.00 0.00 0.00 0.00 0.00 0.00 0.00 0.00 0.00 0.01 0.01 0.02 0.03 0.04 0.07 0.06 0.08 0.10 0.11 0.10 0.08 0.12 0.11 0.09 0.08 0.06 0.06 0.06 0.05 0.04 0.02
0.00 0.00 0.00 0.00 0.00 0.00 0.00 0.00 0.00 0.00 0.00 0.00 0.00 0.00 0.00 0.00 0.00 0.00 0.00 0.00 0.00 0.00 0.01 0.01 0.02 0.02 0.02 0.03 0.06 0.07 0.07 0.06 0.07 0.09 0.06 0.05 0.04 0.04 0.02 0.02 0.02 0.03 0.03